STARLINK-3129 (49453 NORAD) Tracking and Keplerian Element Data

This shows tracking and keplerian element data for the satellite.

Feedback or suggestion? Click here.




ElementValue
Catalog49453
NameSTARLINK-3129
Epoch Orbit370
Epoch Day15.91668981
Epoch Year2022
RAAN180.2328
Inclination53.2173
Eccentricity0.000174
Argument of Perigee38.0063
Mean Anonmoly110.5192
Mean Motion15.54798864
Decay Rate-0.00649034
L11 49453U 21104AX 22015.91668981 -.00649034 00000+0 -10381-1 0 9992
L22 49453 53.2173 180.2328 0001740 38.0063 110.5192 15.54798864 3700

Live tracking and technical data element details for STARLINK-3129 (NORAD 49453). STARLINK-3129 can be tracked NOW for your location showing map with azimuth and elevation plus other details from your city location.

Track the satellite on the map from your city or location and see movement details for azimuth, elevation, latitude, longitude, range, height, and movement on the map or in text.







IsCatalogInMostPopularTable: catalog: 49453, numindb: 7
Update: records affected: 1



GetName: 49453 STARLINK-3129

Hit Count: updated at: Thu, 20 Jan 2022 16:53:24 GMT